Regional Weather Roundup
Issued by NWS

Home | Current Version | Previous Version | Text Only | Print | Product List | Glossary On
Versions: 1 2 3 4 5 6 7 8 9 10 11 12 13 14 15 16 17 18 19 20 21 22 23 24 25 26 27 28 29 30 31 32 33 34 35 36 37 38 39 40 41 42 43 44 45 46 47 48 49 50
000
ASUS45 KABQ 061710
RWRNM
NEW MEXICO REGIONAL WEATHER ROUNDUP
NATIONAL WEATHER SERVICE ALBUQUERQUE NM
1100 AM MDT FRI MAY 06 2016

NOTE: "FAIR" MEANS FEW OR NO CLOUDS BELOW 12,000 FEET AGL WITH NO
       SIGNIFICANT WEATHER OR OBSTRUCTIONS TO VISION.

      THIS PRODUCT IS RELEASED AS TWO VERSIONS.  ONE VERSION NEAR
      THE TOP OF THE HOUR CONTAINING PRELIMINARY DATA FROM ALBUQUERQUE
      AND OTHER STATIONS.  A FINAL VERSION WITH ADDITIONAL DATA IS
      ISSUED ABOUT 10 MINUTES AFTER THE HOUR.

NMZ501-503-504-510>518-061800-
NORTHWEST PLATEAU/NORTHCENTRAL MOUNTAINS

CITY           SKY/WX    TMP DP  RH WIND       PRES   REMARKS
FARMINGTON     FAIR      70  29  21 S13       29.93F
LOS ALAMOS     FAIR      66  27  23 S21G30    30.10F
SANTA FE       FAIR      73  28  18 SE24G33   30.05F
TAOS           FAIR      70  32  24 S5        30.08F
ANGEL FIRE     FAIR      61  26  26 SE22      30.20F

$$
NMZ402-403-502-505>509-061800-
WESTCENTRAL MOUNTAINS/SOUTHWEST MOUNTAINS

CITY           SKY/WX    TMP DP  RH WIND       PRES   REMARKS
GALLUP         FAIR      67  26  21 S13       29.98F
GRANTS         FAIR      71  18  13 SE15G22   30.01F
SILVER CITY      N/A     72  23  16 SW18G29   30.03F

$$
NMZ407-409-411-412-061800-
SOUTHERN DESERTS

CITY           SKY/WX    TMP DP  RH WIND       PRES   REMARKS
LORDSBURG      FAIR      77  28  16 S7G18     29.95S
DEMING         FAIR      77  23  13 SE6       29.97F
LAS CRUCES     FAIR      80  19  10 S10       29.99S
HOLLOMAN AFB   FAIR      82  27  13 S21G28    29.94F
ALAMOGORDO     FAIR      82  25  12 S16G31    29.96S
T OR C         FAIR      75  24  15 S12       29.96F

$$
NMZ519>523-061800-
CENTRAL VALLEYS/CENTRAL HIGHLANDS

CITY           SKY/WX    TMP DP  RH WIND       PRES   REMARKS
ALBUQUERQUE    FAIR      78  20  11 S29       29.99F
DOUBLE EAGLE   SUNNY     73  21  14 S29       30.02F
MORIARTY ARPT  FAIR      74  23  15 S15G23    30.07F
CLINES CORNERS FAIR      69  29  22 S13G23    30.11S
BELEN          FAIR      77  17  10 SE22G28   29.98S
SOCORRO        FAIR      79  17  10 S22G30    29.96F

$$
NMZ524>526-539-540-061800-
SOUTHCENTRAL MOUNTAINS

CITY           SKY/WX    TMP DP  RH WIND       PRES   REMARKS
RUIDOSO          N/A     72  28  20 E15G23    30.12F

$$
NMZ527>531-061800-
NORTHEAST HIGHLANDS/NORTHEAST PLAINS

CITY           SKY/WX    TMP DP  RH WIND       PRES   REMARKS
LAS VEGAS      FAIR      66  29  24 S16       30.14F
RATON          FAIR      68  28  22 S15G23    30.13F
CLAYTON        FAIR      72  33  24 S21G28    30.09F

$$
NMZ532>537-061800-
EASTCENTRAL PLAINS

CITY           SKY/WX    TMP DP  RH WIND       PRES   REMARKS
TUCUMCARI      FAIR      83  33  16 S17G29    30.03F
CANNON AFB     PTSUNNY   76  33  21 S23G29    30.07F
CLOVIS AIRPORT FAIR      77  37  24 S20G29    30.09S

$$
NMZ028-029-538-061800-
SOUTHEAST PLAINS

CITY           SKY/WX    TMP DP  RH WIND       PRES   REMARKS
ROSWELL        FAIR      79  35  20 S22       30.00F
ARTESIA        FAIR      79  37  22 S20G26    29.99F
CARLSBAD       FAIR      80  37  21 SE16G26   29.97F
HOBBS          SUNNY     81  36  19 SE28G33   30.04F


$$




USA.gov is the U.S. government's official web portal to all federal, state and local government web resources and services.